sat.trackr.live / text

‹ back to catalog

GSAT0101 (GALILEO-PFM)

NORAD 37846 · 2011-060A

PAYLOAD ACTIVE UNKNOWN

§ Identity

Operator
Country
ESA
Launch date
2011-10-21
Launch site
FRGUI
Launch vehicle
Mass (kg)
RCS (m²)
12.62

Purposes: earth_obs, nav

External: N2YO · Heavens-Above · Gunter

§ Orbital elements

Epoch: 2026-09-18T02:46:14.546496Z

Period
844.69 min
Inclination
56.9565°
Eccentricity
0.0000201
Mean motion
1.70475808 rev/d
Perigee alt
23,221.4 km
Apogee alt
23,222.6 km
Semi-major
29,600.1 km
B*
0.0000e+0
RAAN
339.2412°
Arg perigee
333.5692°
Mean anomaly
26.4822°
Rev number
9,270

§ Raw data

GSAT0101 (GALILEO-PFM)1 37846U 11060A   26261.11544614 -.00000096  00000+0  00000+0 0  99932 37846  56.9565 339.2412 0000201 333.5692  26.4822  1.70475808 92706

JSON: /api/v1/satellites/37846 · /tle

For live sub-satellite position, see the globe view (requires WebGL).

§ Visibility from observer

Set your observer location to see the next 7 days of passes ≥ 10°. The values pass through the URL so the page stays shareable.

No JS? Fill the form by hand. The geolocation button needs JavaScript.